Regional Weather Roundup
Issued by NWS

Home | Current Version | Previous Version | Text Only | Print | Product List | Glossary On
Versions: 1 2 3 4 5 6 7 8 9 10 11 12 13 14 15 16 17 18 19 20 21 22 23 24 25 26 27 28 29 30 31 32 33 34 35 36 37 38 39 40 41 42 43 44 45 46 47 48 49 50
000
ASUS43 KMPX 201310
RWRMN
WEATHER ROUNDUP FOR MINNESOTA
NATIONAL WEATHER SERVICE TWIN CITIES/CHANHASSEN MN
800 AM CDT TUE AUG 20 2019


NOTE: "FAIR" INDICATES FEW OR NO CLOUDS BELOW 12,000 FEET WITH NO
SIGNIFICANT WEATHER AND/OR OBSTRUCTIONS TO VISIBILITY. N/A MEANS
CURRENT SKY AND/OR WEATHER CONDITIONS ARE NOT AVAILABLE.

MNZ060>063-068>070-201400-
   Twin Cities Metro

CITY           SKY/WX    TMP DP  RH WIND       PRES   REMARKS
TWIN CITIES    PTSUNNY   68  60  75 S9        29.92F
ST PAUL        FAIR      66  60  81 SE9       29.92F
CRYSTAL        FAIR      68  61  78 SE6       29.91R
BLAINE         PTSUNNY   66  64  94 SE6       29.92R
LAKEVILLE        N/A     64  64 100 CALM      29.91F
EDEN PRAIRIE   FAIR      68  62  81 SE5       29.90F
SOUTH ST PAUL  FAIR      66  61  85 SE6       29.92S
LAKE ELMO        N/A     64  63  94 S3        29.95R
$$
MNZ001>005-007-008-013>017-022>024-027-028-201400-
   Northwest Minnesota

CITY           SKY/WX    TMP DP  RH WIND       PRES   REMARKS
BEMIDJI        PTSUNNY   64  63  94 NW6       29.89R
HALLOCK        PTSUNNY   63  59  88 N10       29.95R
ROSEAU         FAIR      57  54  88 N8        29.93R
WARROAD          N/A     57  54  88 N8        29.94R
THIEF RVR FALL PTSUNNY   65  63  93 N14       29.90R
CROOKSTON      CLOUDY    61  61 100 NW14      29.91R
FOSSTON        PTSUNNY   61  61 100 W5        29.89R
DETROIT LAKES  FAIR      64  63  94 CALM      29.90R
MOORHEAD       MOSUNNY   66  64  94 SE5       29.87S
PARK RAPIDS    FAIR      62  62 100 W3        29.85F
$$
MNZ006-009>011-018-025>026-201400-
   North Central Minnesota

CITY           SKY/WX    TMP DP  RH WIND       PRES   REMARKS
BAUDETTE       CLOUDY    59  56  89 E5        29.90R
FLAG ISLAND      N/A     61  55  82 N7        29.92R
INTL FALLS     CLOUDY    59  57  93 NE7       29.86F
WASKISH        FAIR      63  63 100 NE3       29.86R
BIG FORK       FAIR      66  64  94 CALM      29.91F
GRAND RAPIDS   LGT RAIN  66  64  93 VRB5      29.90F
CRANE LAKE     RAIN      57  57 100 CALM      29.91R
ORR            LGT RAIN  63  59  88 CALM      29.88F
COOK           RAIN      64  63  94 S3        29.90F
WALKER         FAIR      63  62  95 CALM      29.87R
$$
MNZ012-019>021-037-201400-
   Northeast Minnesota

CITY           SKY/WX    TMP DP  RH WIND       PRES   REMARKS
DULUTH         TSTM      66  60  81 W21G29    29.97R
ELY            RAIN      63  63 100 CALM      29.95R
HIBBING        RAIN      60  59  96 E3        29.91F FOG
EVELETH        TSTM      63  62  96 SW3       29.94R
DULUTH HARBOR  CLOUDY    61  54  77 W23       29.97R THUNDER
TWO HARBORS    FAIR      61  55  82 CALM      29.90S
SILVER BAY     FAIR      55  54  94 CALM      29.89S
GRAND MARAIS     N/A     53  53 100 CALM      29.90R
G MARAIS ARPRT RAIN      61  57  88 CALM      29.94R
$$
MNZ029>031-032-039>041-046>048-054>057-064-201400-
   West Central Minnesota

CITY           SKY/WX    TMP DP  RH WIND       PRES   REMARKS
FERGUS FALLS   CLOUDY    68  63  83 E6        29.89S
WHEATON        SUNNY     70  66  88 CALM      29.88R
MORRIS         CLOUDY    70  70 100 S3        29.85R
ALEXANDRIA     LGT RAIN  72  66  81 N8G22     29.96R
ELBOW LAKE     CLOUDY    68  68 100 NE10G16   29.92R
WADENA         LGT RAIN  64  63  94 NW5       29.89F
GLENWOOD       FAIR      70  66  88 SW8       29.91R
APPLETON       CLOUDY    72  68  88 S5        29.88R
BENSON         CLOUDY    70  66  88 S7        29.90R
ORTONVILLE     CLOUDY    70  66  88 S5        29.88R
MADISON        CLOUDY    73  72  94 S5        29.90R
WILLMAR        CLOUDY    72  68  88 SW6       29.93R
$$
MNZ033>034-036-042>043-049>051-058-059-201400-
   Central Minnesota

CITY           SKY/WX    TMP DP  RH WIND       PRES   REMARKS
ST CLOUD       TSTM      66  63  90 VRB7      29.91R
SAUK CENTRE    CLOUDY    67  66  95 NW5       29.93R
PAYNESVILLE    CLOUDY    68  68 100 SW7       29.89R
AITKIN         TSTM      63  61  94 SW9       29.98R
PINE RIVER     FAIR      61  57  88 SE8       29.89F
BRAINERD       TSTM      67  63  87 VRB6      30.00R FOG
STAPLES        LGT RAIN  63  63 100 CALM      29.93F
LONG PRAIRIE   TSTM      64  63  94 NE6       29.97R VSB 1
LITTLE FALLS   TSTM      63  63 100 NE13G25   30.00R VSB 3/4
CAMP RIPLEY    TSTM      63  61  95 E8        30.00R
LITCHFIELD     FAIR      72  70  94 SE6       29.89S
BUFFALO        FAIR      69  63  82 MISG      29.90F
MAPLE LAKE       N/A     68  65  90 CALM      29.90S
HUTCHINSON     MOSUNNY   68  67  98 S7        29.90F
$$
MNZ037-044-045-052-053-201400-
   East Central Minnesota

CITY           SKY/WX    TMP DP  RH WIND       PRES   REMARKS
PRINCETON      FAIR      66  64  94 SE9       29.89S
MORA           FAIR      63  61  94 CALM      29.94R THUNDER
CAMBRIDGE      FAIR      66  57  72 SE7       29.91S
RUSH CITY      FAIR      64  59  86 S7        29.92R THUNDER
MOOSE LAKE     TSTM      63  61  94 W5        29.99R
HINCKLEY       PTSUNNY   61  61 100 CALM      29.92R
CLOQUET        TSTM      64  61  88 SW10      29.98R
MCGREGOR       CLOUDY    66  63  88 SW5       29.96F THUNDER
$$
MNZ071>073-080-081-089-090-097-098-201400-
   Southwest Minnesota

CITY           SKY/WX    TMP DP  RH WIND       PRES   REMARKS
MONTEVIDEO     CLOUDY    72  66  83 SW9       29.89R
GRANITE FALLS  CLOUDY    73  69  90 S9        29.91S
MARSHALL       CLOUDY    72  69  90 S13       29.92R
REDWOOD FALLS  CLOUDY    71  69  93 S13       29.90R
OLIVIA         LGT RAIN  68  66  94 S5        29.89R
PIPESTONE      CLOUDY    72  66  83 CALM      29.95R
WINDOM         MOSUNNY   68  64  88 SE12      29.95R
JACKSON        CLOUDY    66  63  88 SE14      29.99R
TRACY          CLOUDY    70  66  88 S14       29.94R
$$
MNZ065>067-074>077-082>085-091>093-201400-
   South Central Minnesota

CITY           SKY/WX    TMP DP  RH WIND       PRES   REMARKS
MANKATO        PTSUNNY   67  66  97 S7        29.95R
NEW ULM        MOSUNNY   66  66 100 SE7       29.91S
FAIRMONT       TSTM      66  65  96 SW9       29.99R
GLENCOE        FAIR      68  68 100 S5        29.89F
WASECA         FOG       68  64  88 NW3       29.96R VSB 1
ALBERT LEA     TSTM      68  66  94 NE9       30.03R
$$
MNZ078>079-086>088-094>096-201400-
   Southeast Minnesota

CITY           SKY/WX    TMP DP  RH WIND       PRES   REMARKS
ROCHESTER      FAIR      63  59  87 SE9       29.99R
RED WING       FAIR      66  59  77 SE8       29.95R
STANTON        FAIR      65  60  85 S5        29.93R
WINONA         FAIR      61  61 100 CALM      29.99R
AUSTIN         PTSUNNY   70  61  73 E6        30.00R
PRESTON        FAIR      67  62  86 S6        29.99R
$$
ABBREVIATIONS USED IN REMARKS
   TC - TEMPERATURES IN CELSIUS
  WCI - WIND CHILL INDEX
   HX - HEAT INDEX
  VSB - VISIBILITY
$$



USA.gov is the U.S. government's official web portal to all federal, state and local government web resources and services.